This is the latest recevied weather packets stored in our database for station/object SV9TNF-2. If no packets are shown the sender has not sent any weather packets the latest 10 day(s).
| Time | Temp. | Humidity | Pressure | Rain* | Wind** | Luminosity | Snow |
|---|---|---|---|---|---|---|---|
| 1777919263 | 16.11° C | 62% | 1025.1 hPa | 0 mm | 5.81 m/s, 193° | - | - |
| 1777918963 | 16.11° C | 63% | 1025.1 hPa | 0 mm | 7.6 m/s, 282° | - | - |
| 1777918663 | 16.11° C | 63% | 1025.1 hPa | 0 mm | 4.47 m/s, 301° | - | - |
| 1777918363 | 16.11° C | 64% | 1025.1 hPa | 0 mm | 8.05 m/s, 250° | - | - |
| 1777918063 | 16.11° C | 63% | 1025.1 hPa | 0 mm | 6.26 m/s, 200° | - | - |
| 1777917763 | 16.11° C | 62% | 1025.1 hPa | 0 mm | 4.02 m/s, 274° | - | - |
| 1777917463 | 16.11° C | 63% | 1025.1 hPa | 0 mm | 4.47 m/s, 244° | - | - |
| 1777917163 | 16.11° C | 64% | 1025.1 hPa | 0 mm | 5.81 m/s, 325° | - | - |
| 1777916863 | 16.11° C | 62% | 1025.1 hPa | 0 mm | 4.92 m/s, 195° | - | - |
| 1777916562 | 16.11° C | 62% | 1025.1 hPa | 0 mm | 5.81 m/s, 347° | - | - |
| 1777916262 | 16.11° C | 60% | 1025.1 hPa | 0 mm | 7.15 m/s, 359° | - | - |
| 1777915962 | 16.11° C | 61% | 1025.1 hPa | 0 mm | 8.49 m/s, 281° | - | - |
| 1777915666 | 16.67° C | 62% | 1025.1 hPa | 0 mm | 4.92 m/s, 173° | - | - |
| 1777915362 | 16.67° C | 61% | 1025.1 hPa | 0 mm | 6.26 m/s, 32° | - | - |
| 1777915062 | 16.67° C | 62% | 1025.1 hPa | 0 mm | 6.26 m/s, 287° | - | - |
| 1777914762 | 16.67° C | 64% | 1025.1 hPa | 0 mm | 8.94 m/s, 263° | - | - |
| 1777914462 | 16.67° C | 63% | 1025.1 hPa | 0 mm | 3.13 m/s, 235° | - | - |
| 1777914162 | 16.67° C | 60% | 1025.1 hPa | 0 mm | 9.83 m/s, 58° | - | - |
| 1777913862 | 16.67° C | 61% | 1025.1 hPa | 0 mm | 10.28 m/s, 358° | - | - |
| 1777913561 | 16.67° C | 59% | 1025.1 hPa | 0 mm | 8.05 m/s, 358° | - | - |
| 1777913262 | 16.67° C | 58% | 1024.7 hPa | 0 mm | 8.05 m/s, 118° | - | - |
| 1777912961 | 16.67° C | 57% | 1024.7 hPa | 0 mm | 12.07 m/s, 321° | - | - |
| 1777912661 | 17.22° C | 59% | 1024.7 hPa | 0 mm | 11.62 m/s, 282° | - | - |
| 1777912362 | 17.78° C | 58% | 1024.7 hPa | 0 mm | 6.26 m/s, 292° | - | - |
| 1777912061 | 17.78° C | 56% | 1024.7 hPa | 0 mm | 7.15 m/s, 21° | - | - |
* Rain latest hour (hover to see other rain measurements)
** Current wind speed in m/s (hover to see current wind gust speed)